Tracking 20721 objects as of 31-May-2020
HD Live streaming from Space Station
objects crossing your sky now
Track the CREW DRAGON and SPACE STATION

FENGYUN 1C DEB

Track FENGYUN 1C DEB now!
10-day predictions


NORAD ID: 31030
Int'l Code: 1999-025BDY
Perigee: 823.9 km
Apogee: 871.7 km
Inclination: 99.0 °
Period: 101.7 minutes
Semi major axis: 7218 km
RCS: 0.0064 m2 (small)
Launch date: May 10, 1999
Source: People's Republic of China (PRC)
Launch site: Taiyaun Space Center, China (TSC)

Note: This is SATELLITE DEBRIS
aabbcc
Your satellite tracking list
Your tracking list is empty




NASA's NSSDC Master Catalog

Two Line Element Set (TLE):
1 31030U 99025BDY 20151.36519323  .00000299  00000-0  17525-3 0  9996
2 31030  98.9560 189.2959 0033112 105.1156 268.1589 14.15471941680884
Source of the keplerian elements: AFSPC